| time (UTC) | temp F | wind direction | speed knots | gust knots | rain 1hr in | rain 24hr in | rain mn in | humidity % | barometer mb |
| 20260502160348 | 44 | 163 | 1.7 | 9.6 | 0.00 | 0.11 | 0.00 | 64 | 1013.0 |
| 20260502152342 | 42 | 306 | 2.6 | 7.0 | 0.00 | 0.12 | 0.00 | 54 | 1012.7 |
| 20260502151835 | 43 | 252 | 2.6 | 7.0 | 0.00 | 0.12 | 0.00 | 61 | 1012.7 |
| 20260502151350 | 42 | 5 | 2.6 | 7.0 | 0.00 | 0.12 | 0.00 | 59 | 1012.7 |
| 20260502150845 | 42 | 309 | 2.6 | 8.7 | 0.00 | 0.12 | 0.00 | 62 | 1012.6 |
| 20260502150344 | 42 | 333 | 2.6 | 8.7 | 0.00 | 0.12 | 0.00 | 63 | 1012.6 |
| 20260502130405 | 37 | 167 | 1.7 | 6.1 | 0.00 | 0.12 | 0.00 | 81 | 1013.2 |
| 20260502123343 | 36 | 217 | 2.6 | 6.1 | 0.00 | 0.12 | 0.00 | 88 | 1013.4 |
| 20260502122837 | 35 | 236 | 2.6 | 4.3 | 0.00 | 0.12 | 0.00 | 87 | 1013.2 |
| 20260502122351 | 35 | 272 | 1.7 | 7.0 | 0.00 | 0.12 | 0.00 | 87 | 1013.3 |
| 20260502121844 | 35 | 219 | 4.3 | 7.0 | 0.00 | 0.12 | 0.00 | 87 | 1013.3 |
| 20260502121338 | 35 | 208 | 2.6 | 6.1 | 0.00 | 0.12 | 0.00 | 88 | 1013.2 |
| 20260502120852 | 35 | 273 | 2.6 | 5.2 | 0.00 | 0.12 | 0.00 | 91 | 1013.3 |
| 20260502120347 | 34 | 234 | 2.6 | 6.1 | 0.00 | 0.12 | 0.00 | 90 | 1013.4 |
| 20260502115834 | 34 | 274 | 2.6 | 5.2 | 0.00 | 0.12 | 0.00 | 92 | 1013.3 |
| 20260502115349 | 33 | 234 | 1.7 | 4.3 | 0.00 | 0.12 | 0.00 | 94 | 1013.3 |
| 20260502114842 | 33 | 238 | 1.7 | 4.3 | 0.00 | 0.12 | 0.00 | 94 | 1013.4 |
| 20260502114338 | 33 | 232 | 1.7 | 3.5 | 0.00 | 0.12 | 0.00 | 94 | 1013.2 |
| 20260502113852 | 33 | 225 | 1.7 | 2.6 | 0.00 | 0.12 | 0.00 | 94 | 1013.3 |
| 20260502113406 | 32 | 225 | 1.7 | 3.5 | 0.00 | 0.12 | 0.00 | 94 | 1013.3 |
| 20260502112840 | 32 | 225 | 1.7 | 3.5 | 0.00 | 0.12 | 0.00 | 94 | 1013.2 |
| 20260502112333 | 32 | 224 | 1.7 | 1.7 | 0.00 | 0.12 | 0.00 | 94 | 1013.2 |
| 20260502111832 | 32 | 222 | 0.9 | 1.7 | 0.00 | 0.12 | 0.00 | 94 | 1013.2 |
| 20260502111346 | 32 | 222 | 0.9 | 1.7 | 0.00 | 0.12 | 0.00 | 94 | 1013.1 |
| 20260502110841 | 32 | 222 | 0.9 | 1.7 | 0.00 | 0.12 | 0.00 | 94 | 1013.1 |
| 20260502110336 | 32 | 222 | 0.9 | 2.6 | 0.00 | 0.12 | 0.00 | 94 | 1013.1 |
| 20260502105902 | 32 | 222 | 0.9 | 2.6 | 0.00 | 0.12 | 0.00 | 94 | 1013.1 |
| 20260502105335 | 31 | 252 | 0.9 | 2.6 | 0.00 | 0.12 | 0.00 | 94 | 1013.0 |
| 20260502104910 | 31 | 286 | 0.0 | 2.6 | 0.00 | 0.12 | 0.00 | 94 | 1013.0 |
| 20260502104402 | 31 | 286 | 0.9 | 1.7 | 0.00 | 0.12 | 0.00 | 94 | 1013.0 |
| 20260502103834 | 31 | 286 | 0.0 | 1.7 | 0.00 | 0.12 | 0.00 | 94 | 1012.8 |
| 20260502103348 | 30 | 286 | 0.0 | 1.7 | 0.00 | 0.12 | 0.00 | 93 | 1012.8 |
| 20260502102843 | 30 | 286 | 0.9 | 1.7 | 0.00 | 0.12 | 0.00 | 93 | 1012.8 |
| 20260502102338 | 30 | 286 | 0.0 | 0.0 | 0.00 | 0.12 | 0.00 | 93 | 1012.7 |
| 20260502101833 | 30 | 286 | 0.0 | 1.7 | 0.00 | 0.12 | 0.00 | 93 | 1012.7 |
| 20260502101347 | 30 | 286 | 0.0 | 1.7 | 0.00 | 0.12 | 0.00 | 93 | 1012.7 |
| 20260502100841 | 30 | 286 | 0.0 | 1.7 | 0.00 | 0.12 | 0.00 | 93 | 1012.7 |
| 20260502100337 | 30 | 286 | 0.0 | 0.9 | 0.00 | 0.12 | 0.00 | 93 | 1012.5 |
| 20260502091406 | 30 | 286 | 0.0 | 0.9 | 0.00 | 0.12 | 0.00 | 93 | 1012.3 |
| 20260502090839 | 30 | 286 | 0.0 | 0.9 | 0.00 | 0.12 | 0.00 | 93 | 1012.4 |
| 20260502090335 | 30 | 286 | 0.0 | 1.7 | 0.00 | 0.12 | 0.00 | 92 | 1012.3 |
| 20260502071337 | 31 | 242 | 0.9 | 1.7 | 0.00 | 0.12 | 0.00 | 92 | 1011.6 |
| 20260502070850 | 31 | 242 | 0.0 | 0.0 | 0.00 | 0.12 | 0.00 | 91 | 1011.8 |
| 20260502070405 | 31 | 242 | 0.0 | 0.9 | 0.00 | 0.12 | 0.00 | 91 | 1011.9 |
| 20260502065852 | 31 | 242 | 0.0 | 0.9 | 0.00 | 0.12 | 0.00 | 92 | 1011.9 |
| 20260502065347 | 31 | 242 | 0.0 | 0.9 | 0.00 | 0.12 | 0.00 | 92 | 1012.0 |
| 20260502064902 | 31 | 242 | 0.0 | 0.9 | 0.00 | 0.12 | 0.00 | 92 | 1012.0 |
| 20260502064335 | 32 | 242 | 0.0 | 0.9 | 0.00 | 0.12 | 0.00 | 92 | 1012.0 |
| 20260502063850 | 32 | 242 | 0.0 | 0.9 | 0.00 | 0.12 | 0.00 | 92 | 1012.0 |
| 20260502063343 | 32 | 242 | 0.0 | 1.7 | 0.00 | 0.12 | 0.00 | 91 | 1012.1 |
| 20260502062857 | 32 | 242 | 0.9 | 1.7 | 0.00 | 0.12 | 0.00 | 92 | 1012.0 |
| 20260502062350 | 32 | 242 | 0.0 | 1.7 | 0.00 | 0.12 | 0.00 | 92 | 1012.1 |
| 20260502061844 | 32 | 242 | 0.0 | 1.7 | 0.00 | 0.12 | 0.00 | 92 | 1012.2 |
| 20260502061339 | 32 | 242 | 0.0 | 1.7 | 0.00 | 0.12 | 0.00 | 92 | 1012.2 |
| 20260502060852 | 33 | 242 | 0.0 | 0.9 | 0.00 | 0.12 | 0.00 | 92 | 1012.3 |
| 20260502060347 | 33 | 242 | 0.0 | 1.7 | 0.00 | 0.12 | 0.00 | 92 | 1012.3 |
| 20260502055836 | 33 | 242 | 0.0 | 1.7 | 0.00 | 0.12 | 0.00 | 92 | 1012.4 |
| 20260502055351 | 33 | 242 | 0.0 | 0.9 | 0.00 | 0.12 | 0.00 | 92 | 1012.3 |
| 20260502054845 | 33 | 242 | 0.0 | 0.0 | 0.00 | 0.12 | 0.00 | 92 | 1012.4 |
| 20260502054339 | 33 | 242 | 0.0 | 0.0 | 0.00 | 0.12 | 0.00 | 92 | 1012.4 |
| 20260502053834 | 34 | 242 | 0.0 | 0.9 | 0.00 | 0.12 | 0.00 | 92 | 1012.4 |
| 20260502053349 | 34 | 242 | 0.0 | 1.7 | 0.00 | 0.12 | 0.00 | 92 | 1012.3 |
| 20260502052846 | 34 | 242 | 0.0 | 1.7 | 0.00 | 0.12 | 0.00 | 92 | 1012.3 |
| 20260502052402 | 34 | 242 | 0.0 | 0.9 | 0.00 | 0.12 | 0.00 | 92 | 1012.3 |
| 20260502051834 | 34 | 242 | 0.0 | 0.9 | 0.00 | 0.12 | 0.00 | 92 | 1012.4 |
| 20260502051349 | 34 | 242 | 0.0 | 0.9 | 0.00 | 0.12 | 0.00 | 92 | 1012.4 |
| 20260502050905 | 34 | 242 | 0.0 | 1.7 | 0.00 | 0.12 | 0.00 | 92 | 1012.3 |
| 20260502050340 | 35 | 242 | 0.0 | 1.7 | 0.00 | 0.12 | 0.00 | 92 | 1012.2 |
| 20260502045847 | 35 | 220 | 0.0 | 1.7 | 0.00 | 0.12 | 0.00 | 92 | 1012.1 |
| 20260502045339 | 35 | 220 | 0.0 | 2.6 | 0.00 | 0.12 | 0.00 | 92 | 1012.1 |
| 20260502044834 | 35 | 220 | 0.0 | 2.6 | 0.00 | 0.12 | 0.00 | 92 | 1012.0 |
| 20260502044350 | 35 | 285 | 0.0 | 1.7 | 0.00 | 0.12 | 0.00 | 92 | 1011.9 |
| 20260502043843 | 35 | 285 | 0.9 | 1.7 | 0.00 | 0.12 | 0.00 | 92 | 1011.9 |
| 20260502043338 | 35 | 285 | 0.0 | 1.7 | 0.00 | 0.12 | 0.00 | 92 | 1011.7 |
| 20260502042852 | 35 | 285 | 0.9 | 1.7 | 0.00 | 0.12 | 0.00 | 92 | 1011.7 |
| 20260502042409 | 35 | 285 | 0.0 | 1.7 | 0.00 | 0.12 | 0.00 | 92 | 1011.5 |
| 20260502041841 | 36 | 285 | 0.9 | 1.7 | 0.00 | 0.12 | 0.00 | 92 | 1011.4 |
| 20260502041335 | 36 | 285 | 0.0 | 1.7 | 0.00 | 0.12 | 0.00 | 91 | 1011.5 |
| 20260502040851 | 36 | 285 | 0.0 | 2.6 | 0.00 | 0.12 | 0.00 | 92 | 1011.5 |
| 20260502040346 | 36 | 285 | 0.0 | 2.6 | 0.00 | 0.12 | 0.00 | 92 | 1011.4 |
| 20260502035913 | 37 | 284 | 0.0 | 2.6 | 0.00 | 0.13 | 0.12 | 92 | 1011.4 |
| 20260502035346 | 37 | 284 | 0.9 | 3.5 | 0.00 | 0.13 | 0.12 | 92 | 1011.6 |
| 20260502034842 | 37 | 236 | 1.7 | 3.5 | 0.00 | 0.13 | 0.12 | 92 | 1011.6 |
| 20260502034336 | 37 | 238 | 0.9 | 3.5 | 0.00 | 0.13 | 0.12 | 92 | 1011.7 |
| 20260502033850 | 37 | 250 | 1.7 | 3.5 | 0.00 | 0.13 | 0.12 | 92 | 1011.8 |
| 20260502033344 | 37 | 261 | 0.0 | 3.5 | 0.00 | 0.13 | 0.12 | 92 | 1011.8 |
| 20260502032843 | 37 | 252 | 0.9 | 6.1 | 0.00 | 0.13 | 0.12 | 92 | 1011.8 |
| 20260502032337 | 37 | 232 | 2.6 | 6.1 | 0.00 | 0.13 | 0.12 | 92 | 1011.7 |
| 20260502031852 | 37 | 225 | 1.7 | 5.2 | 0.00 | 0.13 | 0.12 | 92 | 1011.8 |
| 20260502031345 | 37 | 231 | 0.9 | 3.5 | 0.00 | 0.13 | 0.12 | 92 | 1011.7 |
| 20260502030840 | 37 | 236 | 0.9 | 2.6 | 0.00 | 0.13 | 0.12 | 92 | 1011.8 |
| 20260502030334 | 37 | 236 | 0.9 | 3.5 | 0.00 | 0.13 | 0.12 | 92 | 1011.7 |
| 20260502025902 | 37 | 234 | 1.7 | 4.3 | 0.00 | 0.15 | 0.12 | 92 | 1011.7 |
| 20260502025353 | 37 | 233 | 2.6 | 4.3 | 0.00 | 0.15 | 0.12 | 92 | 1011.6 |
| 20260502024848 | 37 | 231 | 2.6 | 4.3 | 0.00 | 0.15 | 0.12 | 92 | 1011.6 |
| 20260502024342 | 37 | 238 | 1.7 | 3.5 | 0.00 | 0.15 | 0.12 | 92 | 1011.6 |
| 20260502023837 | 37 | 215 | 0.9 | 6.1 | 0.00 | 0.15 | 0.12 | 92 | 1011.8 |
| 20260502023349 | 38 | 238 | 2.6 | 6.1 | 0.00 | 0.15 | 0.12 | 92 | 1011.6 |
| 20260502022904 | 38 | 221 | 2.6 | 7.0 | 0.00 | 0.15 | 0.12 | 92 | 1011.8 |
| 20260502022337 | 38 | 238 | 3.5 | 7.0 | 0.00 | 0.15 | 0.12 | 92 | 1011.8 |
| 20260502021832 | 38 | 235 | 2.6 | 7.0 | 0.00 | 0.15 | 0.12 | 92 | 1011.9 |
| 20260502021407 | 38 | 220 | 2.6 | 5.2 | 0.00 | 0.15 | 0.12 | 92 | 1011.8 |
| 20260502020842 | 38 | 244 | 1.7 | 5.2 | 0.00 | 0.15 | 0.12 | 92 | 1011.9 |
| 20260502020336 | 38 | 259 | 0.9 | 3.5 | 0.00 | 0.15 | 0.12 | 92 | 1011.9 |
| 20260502015841 | 38 | 262 | 0.9 | 1.7 | 0.00 | 0.17 | 0.12 | 93 | 1011.9 |
| 20260502015335 | 38 | 261 | 0.0 | 2.6 | 0.00 | 0.17 | 0.12 | 92 | 1011.7 |
| 20260502014850 | 38 | 261 | 0.9 | 2.6 | 0.00 | 0.17 | 0.12 | 92 | 1011.7 |
| 20260502014346 | 39 | 263 | 0.9 | 2.6 | 0.00 | 0.17 | 0.12 | 93 | 1011.6 |
| 20260502013901 | 39 | 250 | 0.9 | 3.5 | 0.00 | 0.17 | 0.12 | 93 | 1011.5 |
| 20260502013354 | 39 | 250 | 1.7 | 3.5 | 0.00 | 0.17 | 0.12 | 93 | 1011.5 |
| 20260502012848 | 39 | 225 | 0.9 | 2.6 | 0.00 | 0.17 | 0.12 | 93 | 1011.3 |
| 20260502012401 | 39 | 223 | 1.7 | 3.5 | 0.00 | 0.17 | 0.12 | 93 | 1011.4 |
| 20260502011855 | 39 | 223 | 1.7 | 3.5 | 0.00 | 0.17 | 0.12 | 93 | 1011.3 |
| 20260502011348 | 39 | 223 | 0.0 | 3.5 | 0.00 | 0.17 | 0.12 | 93 | 1011.3 |
| 20260502010842 | 39 | 219 | 0.9 | 2.6 | 0.00 | 0.17 | 0.12 | 93 | 1011.3 |
| 20260502010337 | 39 | 236 | 0.9 | 5.2 | 0.00 | 0.17 | 0.12 | 93 | 1011.2 |
| 20260502005846 | 39 | 236 | 1.7 | 5.2 | 0.00 | 0.17 | 0.12 | 93 | 1011.2 |
| 20260502005344 | 39 | 217 | 0.9 | 3.5 | 0.00 | 0.17 | 0.12 | 92 | 1011.0 |
| 20260502004839 | 40 | 167 | 0.0 | 2.6 | 0.00 | 0.17 | 0.12 | 92 | 1011.0 |
| 20260502004413 | 40 | 167 | 0.9 | 2.6 | 0.00 | 0.17 | 0.12 | 92 | 1011.0 |
| 20260502003847 | 40 | 167 | 0.9 | 2.6 | 0.00 | 0.17 | 0.12 | 92 | 1011.0 |
| 20260502003341 | 40 | 167 | 1.7 | 2.6 | 0.00 | 0.17 | 0.12 | 92 | 1011.0 |
| 20260502002836 | 40 | 238 | 0.9 | 1.7 | 0.00 | 0.17 | 0.12 | 92 | 1010.9 |
| 20260502002333 | 40 | 238 | 0.0 | 0.9 | 0.00 | 0.17 | 0.12 | 92 | 1010.8 |
| 20260502001909 | 40 | 238 | 0.0 | 3.5 | 0.00 | 0.17 | 0.12 | 92 | 1010.6 |
| 20260502001341 | 40 | 238 | 0.0 | 3.5 | 0.00 | 0.17 | 0.12 | 91 | 1010.5 |
| 20260502000836 | 40 | 238 | 0.9 | 3.5 | 0.00 | 0.17 | 0.12 | 91 | 1010.2 |
| 20260502000349 | 40 | 238 | 1.7 | 2.6 | 0.00 | 0.17 | 0.12 | 91 | 1010.1 |
| 20260501235838 | 40 | 229 | 0.0 | 2.6 | 0.00 | 0.17 | 0.12 | 91 | 1010.2 |
| 20260501235352 | 40 | 230 | 0.0 | 2.6 | 0.00 | 0.17 | 0.12 | 91 | 1010.0 |
| 20260501234846 | 41 | 230 | 0.0 | 3.5 | 0.00 | 0.17 | 0.12 | 91 | 1010.0 |
| 20260501234402 | 41 | 245 | 2.6 | 3.5 | 0.00 | 0.17 | 0.12 | 91 | 1010.1 |
| 20260501233836 | 41 | 220 | 1.7 | 3.5 | 0.00 | 0.17 | 0.12 | 91 | 1009.8 |
| 20260501233351 | 41 | 240 | 0.9 | 2.6 | 0.00 | 0.17 | 0.12 | 91 | 1009.9 |
| 20260501232845 | 41 | 240 | 0.9 | 4.3 | 0.00 | 0.17 | 0.12 | 91 | 1009.9 |
| 20260501232359 | 41 | 240 | 0.9 | 4.3 | 0.00 | 0.17 | 0.12 | 91 | 1009.9 |
| 20260501231833 | 41 | 239 | 1.7 | 3.5 | 0.00 | 0.17 | 0.12 | 91 | 1010.0 |
| 20260501231408 | 41 | 211 | 0.9 | 5.2 | 0.00 | 0.17 | 0.12 | 91 | 1009.9 |
| 20260501230840 | 42 | 226 | 1.7 | 5.2 | 0.00 | 0.17 | 0.12 | 91 | 1009.9 |
| 20260501230354 | 42 | 248 | 0.9 | 3.5 | 0.00 | 0.17 | 0.12 | 91 | 1009.8 |
| 20260501225839 | 42 | 217 | 0.9 | 3.5 | 0.00 | 0.17 | 0.12 | 91 | 1009.8 |
| 20260501225355 | 42 | 227 | 1.7 | 3.5 | 0.00 | 0.17 | 0.12 | 91 | 1009.7 |
| 20260501224848 | 42 | 219 | 1.7 | 3.5 | 0.00 | 0.17 | 0.12 | 91 | 1009.7 |
| 20260501224402 | 41 | 273 | 1.7 | 3.5 | 0.00 | 0.17 | 0.12 | 91 | 1009.8 |
| 20260501223834 | 41 | 196 | 0.9 | 3.5 | 0.01 | 0.17 | 0.12 | 91 | 1009.8 |
| 20260501223347 | 41 | 215 | 1.7 | 3.5 | 0.01 | 0.17 | 0.12 | 91 | 1009.7 |
| 20260501222842 | 41 | 161 | 0.9 | 3.5 | 0.01 | 0.17 | 0.12 | 91 | 1009.6 |
| 20260501222341 | 41 | 171 | 0.0 | 1.7 | 0.01 | 0.17 | 0.12 | 91 | 1009.7 |
| 20260501221909 | 41 | 171 | 1.7 | 1.7 | 0.01 | 0.17 | 0.12 | 91 | 1009.8 |
| 20260501221346 | 41 | 171 | 0.9 | 1.7 | 0.01 | 0.17 | 0.12 | 91 | 1009.7 |
| 20260501220839 | 41 | 171 | 0.9 | 1.7 | 0.01 | 0.17 | 0.12 | 91 | 1009.7 |
| 20260501220336 | 41 | 170 | 0.9 | 3.5 | 0.01 | 0.17 | 0.12 | 92 | 1009.7 |
| 20260501215843 | 40 | 215 | 1.7 | 3.5 | 0.01 | 0.17 | 0.12 | 91 | 1009.8 |
| 20260501215336 | 40 | 220 | 2.6 | 3.5 | 0.01 | 0.17 | 0.12 | 91 | 1009.8 |
| 20260501214852 | 41 | 221 | 1.7 | 3.5 | 0.01 | 0.17 | 0.12 | 92 | 1009.8 |
| 20260501214405 | 41 | 11 | 0.9 | 1.7 | 0.00 | 0.16 | 0.11 | 92 | 1009.9 |
| 20260501213839 | 41 | 11 | 0.0 | 1.7 | 0.00 | 0.16 | 0.11 | 92 | 1009.9 |
| 20260501213334 | 40 | 11 | 0.0 | 2.6 | 0.00 | 0.16 | 0.11 | 92 | 1009.9 |
| 20260501212850 | 40 | 11 | 0.9 | 2.6 | 0.01 | 0.16 | 0.11 | 92 | 1009.9 |
| 20260501212404 | 40 | 12 | 1.7 | 3.5 | 0.01 | 0.16 | 0.11 | 92 | 1010.0 |
| 20260501211858 | 40 | 19 | 1.7 | 3.5 | 0.01 | 0.16 | 0.11 | 92 | 1010.0 |
| 20260501211351 | 40 | 16 | 0.9 | 2.6 | 0.01 | 0.16 | 0.11 | 92 | 1009.8 |
| 20260501210845 | 40 | 30 | 0.9 | 2.6 | 0.01 | 0.16 | 0.11 | 92 | 1009.7 |
| 20260501210341 | 40 | 10 | 0.0 | 2.6 | 0.01 | 0.16 | 0.11 | 92 | 1009.6 |
| 20260501205848 | 40 | 10 | 1.7 | 2.6 | 0.01 | 0.16 | 0.11 | 91 | 1009.6 |
| 20260501205345 | 40 | 24 | 0.9 | 2.6 | 0.01 | 0.16 | 0.11 | 92 | 1009.6 |
| 20260501204840 | 40 | 360 | 0.0 | 2.6 | 0.01 | 0.16 | 0.11 | 92 | 1009.6 |
| 20260501204336 | 40 | 350 | 0.0 | 2.6 | 0.01 | 0.16 | 0.11 | 91 | 1009.7 |
| 20260501203850 | 40 | 350 | 1.7 | 2.6 | 0.01 | 0.16 | 0.11 | 91 | 1009.7 |
| 20260501203346 | 40 | 346 | 0.0 | 1.7 | 0.01 | 0.16 | 0.11 | 92 | 1009.7 |
| 20260501202839 | 40 | 346 | 0.0 | 1.7 | 0.00 | 0.15 | 0.10 | 92 | 1009.7 |
| 20260501202334 | 40 | 346 | 0.9 | 3.5 | 0.00 | 0.15 | 0.10 | 92 | 1009.8 |
| 20260501201847 | 40 | 346 | 0.9 | 3.5 | 0.00 | 0.15 | 0.10 | 92 | 1009.7 |
| 20260501201345 | 40 | 320 | 0.9 | 2.6 | 0.00 | 0.15 | 0.10 | 92 | 1009.7 |
| 20260501200840 | 40 | 105 | 0.9 | 3.5 | 0.00 | 0.15 | 0.10 | 92 | 1009.5 |
| 20260501200337 | 40 | 319 | 0.9 | 3.5 | 0.01 | 0.15 | 0.10 | 91 | 1009.7 |
| 20260501195844 | 40 | 300 | 0.0 | 4.3 | 0.01 | 0.15 | 0.10 | 91 | 1009.7 |
| 20260501195340 | 40 | 335 | 0.9 | 4.3 | 0.01 | 0.15 | 0.10 | 91 | 1009.5 |
| 20260501194855 | 40 | 13 | 0.9 | 3.5 | 0.01 | 0.15 | 0.10 | 91 | 1009.6 |
| 20260501194351 | 40 | 5 | 1.7 | 2.6 | 0.02 | 0.15 | 0.10 | 91 | 1009.7 |
| 20260501193845 | 40 | 13 | 0.9 | 2.6 | 0.02 | 0.15 | 0.10 | 91 | 1009.7 |
| 20260501193340 | 40 | 13 | 0.9 | 3.5 | 0.02 | 0.15 | 0.10 | 90 | 1009.7 |
| 20260501192834 | 40 | 355 | 0.9 | 3.5 | 0.03 | 0.15 | 0.10 | 90 | 1009.7 |
| 20260501192350 | 40 | 355 | 0.9 | 4.3 | 0.03 | 0.15 | 0.10 | 91 | 1009.9 |
| 20260501191904 | 40 | 355 | 2.6 | 4.3 | 0.03 | 0.15 | 0.10 | 91 | 1009.8 |
| 20260501191336 | 40 | 314 | 0.0 | 2.6 | 0.03 | 0.15 | 0.10 | 91 | 1009.9 |
| 20260501190850 | 40 | 319 | 1.7 | 2.6 | 0.02 | 0.14 | 0.09 | 92 | 1009.9 |
| 20260501190406 | 39 | 56 | 0.9 | 2.6 | 0.02 | 0.14 | 0.09 | 91 | 1009.9 |
| 20260501185851 | 39 | 302 | 0.9 | 3.5 | 0.03 | 0.14 | 0.09 | 91 | 1009.9 |
| 20260501185406 | 39 | 337 | 0.9 | 3.5 | 0.03 | 0.14 | 0.09 | 90 | 1010.0 |
| 20260501184901 | 39 | 338 | 0.9 | 3.5 | 0.04 | 0.14 | 0.09 | 90 | 1010.0 |
| 20260501184355 | 39 | 309 | 0.9 | 3.5 | 0.03 | 0.13 | 0.08 | 90 | 1010.1 |
| 20260501183909 | 39 | 31 | 1.7 | 3.5 | 0.03 | 0.13 | 0.08 | 89 | 1010.2 |
| 20260501183342 | 40 | 339 | 0.0 | 2.6 | 0.03 | 0.13 | 0.08 | 89 | 1010.2 |
| 20260501182837 | 40 | 339 | 0.9 | 3.5 | 0.03 | 0.12 | 0.07 | 89 | 1010.1 |
| 20260501182413 | 40 | 29 | 1.7 | 3.5 | 0.03 | 0.12 | 0.07 | 89 | 1010.1 |
| 20260501181847 | 39 | 105 | 0.9 | 2.6 | 0.04 | 0.12 | 0.07 | 89 | 1010.1 |
| 20260501181343 | 39 | 105 | 1.7 | 2.6 | 0.04 | 0.12 | 0.07 | 89 | 1010.1 |
| 20260501180839 | 39 | 32 | 0.0 | 1.7 | 0.04 | 0.12 | 0.07 | 89 | 1010.2 |
| 20260501180333 | 39 | 32 | 0.0 | 2.6 | 0.03 | 0.11 | 0.06 | 89 | 1010.1 |
| 20260501175841 | 40 | 32 | 1.7 | 2.6 | 0.03 | 0.11 | 0.06 | 89 | 1010.1 |
| 20260501175336 | 40 | 32 | 1.7 | 2.6 | 0.04 | 0.11 | 0.06 | 89 | 1010.2 |
| 20260501174834 | 40 | 32 | 1.7 | 2.6 | 0.03 | 0.10 | 0.05 | 89 | 1010.2 |
| 20260501174351 | 40 | 32 | 1.7 | 3.5 | 0.03 | 0.10 | 0.05 | 89 | 1010.1 |
| 20260501173846 | 40 | 32 | 1.7 | 3.5 | 0.03 | 0.10 | 0.05 | 89 | 1010.1 |
| 20260501173340 | 40 | 38 | 1.7 | 3.5 | 0.03 | 0.10 | 0.05 | 88 | 1010.1 |
| 20260501172854 | 40 | 26 | 0.9 | 2.6 | 0.02 | 0.09 | 0.04 | 87 | 1010.1 |
| 20260501172348 | 40 | 26 | 0.9 | 2.6 | 0.03 | 0.09 | 0.04 | 87 | 1010.2 |
| 20260501171842 | 40 | 128 | 1.7 | 2.6 | 0.02 | 0.08 | 0.03 | 86 | 1010.2 |
| 20260501171338 | 40 | 188 | 0.9 | 2.6 | 0.02 | 0.08 | 0.03 | 86 | 1010.2 |
| 20260501170851 | 40 | 188 | 0.9 | 2.6 | 0.02 | 0.08 | 0.03 | 86 | 1010.3 |
| 20260501170347 | 40 | 188 | 0.9 | 2.6 | 0.02 | 0.08 | 0.03 | 86 | 1010.2 |
| 20260501165834 | 40 | 187 | 0.9 | 1.7 | 0.01 | 0.07 | 0.02 | 86 | 1010.4 |
| 20260501165410 | 40 | 187 | 0.0 | 0.9 | 0.01 | 0.07 | 0.02 | 87 | 1010.4 |
| 20260501164844 | 40 | 187 | 0.0 | 0.9 | 0.01 | 0.07 | 0.02 | 87 | 1010.4 |
| 20260501164338 | 40 | 187 | 0.0 | 0.9 | 0.01 | 0.07 | 0.02 | 87 | 1010.4 |
| 20260501163852 | 40 | 187 | 0.0 | 0.9 | 0.01 | 0.07 | 0.02 | 87 | 1010.6 |
| 20260501163346 | 40 | 187 | 0.0 | 1.7 | 0.01 | 0.07 | 0.02 | 87 | 1010.5 |
| 20260501162841 | 40 | 187 | 0.0 | 1.7 | 0.01 | 0.07 | 0.02 | 87 | 1010.6 |
| 20260501162335 | 40 | 187 | 0.9 | 1.7 | 0.00 | 0.06 | 0.01 | 87 | 1010.5 |
| 20260501161911 | 40 | 187 | 0.0 | 3.5 | 0.00 | 0.06 | 0.01 | 87 | 1010.5 |
| 20260501161345 | 40 | 187 | 0.9 | 3.5 | 0.01 | 0.06 | 0.01 | 87 | 1010.6 |
| 20260501160839 | 40 | 67 | 0.0 | 2.6 | 0.01 | 0.06 | 0.01 | 88 | 1010.5 |